リニア彗星

C/2004 RG113 ( LINEAR )

English version
Home page
Updated on August 9, 2005

---------------------------------------------------------------------

・ プロフィール

発見日 2004年9月6日
発見光度 19.2等
発見者 Lincoln Laboratory Near-Earth Asteroid Research project

・ 写真集

・ 軌道要素

Epoch 2005 Mar. 11.0 TT = JDT 2453440.5
T 2005 Mar. 3.72331 TT                                  MPC
q   1.9422806            (2000.0)            P               Q
z  +0.0014306      Peri.  125.31045     -0.68693893     -0.72454000
 +/-0.0000166      Node     8.77197     +0.48742927     -0.51671425
e   0.9972214      Incl.   21.61803     +0.53900614     -0.45612297
>From 91 observations 2004 Aug. 19-Dec. 16, mean residual 0".57.

・ 星図

・ 光度変化

        m1 = 12.5 + 5 logΔ + 10.0 log r

---------------------------------------------------------------------

軌道要素はM.P.E.C. 2004-Y10に掲載されたものです。
星図は StellaNavigator Ver.2.0 for Windows (アストロアーツ 編著 / アスキー出版局刊) で作成したものです。
光度グラフはComet for Windowsで作成したものです。

---------------------------------------------------------------------

Copyright(C) Seiichi Yoshida (comet@aerith.net). All rights reserved.